Location: Consuma
(43.7833°N, 11.5833°E)
Time: 18:21:11
(UTC+00:00)

Cosmos 1656 Rocket - Pass Details

Date: 17 February 2020
Orbit: 794 x 848 km, 71.1° (Epoch: 27 March)

Event Time Altitude Azimuth Distance (km) Brightness Sun altitude
Rises 05:16:56 0° 334° (NNW) 3,405 6.5 -10.3°
Reaches altitude 10° 05:19:23 10° 335° (NNW) 2,472 5.8 -9.9°
Maximum altitude 05:25:05 88° 251° (WSW) 854 3.7 -8.9°
Drops below altitude 10° 05:30:46 10° 158° (SSE) 2,465 6.6 -7.8°
Sets 05:33:12 0° 158° (SSE) 3,394 7.3 -7.4°
